This is the latest recevied weather packets stored in our database for station/object EA8BQU-10. If no packets are shown the sender has not sent any weather packets the latest 10 day(s).
| Time | Temp. | Humidity | Pressure | Rain* | Wind** | Luminosity | Snow |
|---|---|---|---|---|---|---|---|
| 1777570250 | 20° C | 100% | 1017.6 hPa | - | - | - | - |
| 1777569346 | 20° C | 100% | 1017.5 hPa | - | - | - | - |
| 1777568446 | 20.56° C | 98% | 1017.5 hPa | - | - | - | - |
| 1777567546 | 20.56° C | 96% | 1017.6 hPa | - | - | - | - |
| 1777566645 | 20.56° C | 97% | 1017.6 hPa | - | - | - | - |
| 1777565742 | 20.56° C | 97% | 1017.6 hPa | - | - | - | - |
| 1777564842 | 21.11° C | 93% | 1017.4 hPa | - | - | - | - |
| 1777563942 | 21.67° C | 91% | 1017.3 hPa | - | - | - | - |
| 1777563042 | 21.11° C | 92% | 1017.4 hPa | - | - | - | - |
| 1777562142 | 21.67° C | 91% | 1017.4 hPa | - | - | - | - |
| 1777561242 | 21.11° C | 93% | 1017.5 hPa | - | - | - | - |
| 1777560341 | 20.56° C | 96% | 1017.8 hPa | - | - | - | - |
| 1777559440 | 20° C | 98% | 1017.6 hPa | - | - | - | - |
| 1777558540 | 20.56° C | 96% | 1017.9 hPa | - | - | - | - |
| 1777557640 | 20.56° C | 96% | 1017.9 hPa | - | - | - | - |
| 1777556739 | 20.56° C | 96% | 1017.9 hPa | - | - | - | - |
| 1777555839 | 20° C | 97% | 1018 hPa | - | - | - | - |
| 1777554939 | 20° C | 97% | 1018 hPa | - | - | - | - |
| 1777554039 | 20° C | 97% | 1018 hPa | - | - | - | - |
| 1777553138 | 20° C | 97% | 1018.1 hPa | - | - | - | - |
| 1777552238 | 20° C | 97% | 1018 hPa | - | - | - | - |
| 1777551338 | 20° C | 97% | 1018 hPa | - | - | - | - |
| 1777550438 | 20° C | 97% | 1018.1 hPa | - | - | - | - |
| 1777549536 | 20° C | 99% | 1018 hPa | - | - | - | - |
| 1777548646 | 20.56° C | 97% | 1018.2 hPa | - | - | - | - |
* Rain since midnight (hover to see other rain measurements)
** Current wind speed in m/s (hover to see current wind gust speed)